Regional Weather Roundup
Issued by NWS

Home | Current Version | Previous Version | Graphics & Text | Print | Product List | Glossary On
Versions: 1 2 3 4 5 6 7 8 9 10 11 12 13 14 15 16 17 18 19 20 21 22 23 24 25 26 27 28 29 30 31 32 33 34 35 36 37 38 39 40 41 42 43 44 45 46 47 48 49 50
000
ASUS43 KMKX 220121
RWRWI

WISCONSIN REGIONAL WEATHER ROUNDUP
NATIONAL WEATHER SERVICE MILWAUKEE/SULLIVAN WI
800 PM CDT SAT OCT 21 2017

NOTE: "FAIR" INDICATES FEW OR NO CLOUDS BELOW 12,000 FEET WITH NO
SIGNIFICANT WEATHER AND/OR OBSTRUCTIONS TO VISIBILITY.

WIZ001-002-006>008-014>016-023>028-220200-
NORTHWEST WISCONSIN

CITY           SKY/WX    TMP DP  RH WIND       PRES   REMARKS
SUPERIOR ARPT  CLOUDY    66  60  80 S10       29.66S
ASHLAND        CLOUDY    68  57  68 S13G18    29.71F
HAYWARD        PTCLDY    66  57  72 S12       29.73F
SIREN          LGT RAIN  65  58  78 S20G25    29.69S
CUMBERLAND     CLOUDY    64  55  72 S13       29.73F
RICE LAKE      CLOUDY    65  58  77 SE10      29.75F
CHETEK         CLOUDY    66  59  79 MISG      29.75F
LADYSMITH      CLOUDY    66  57  72 S9        29.79F
EAU CLAIRE     CLOUDY    67  58  72 S13       29.75F
MENOMONIE      CLOUDY    68  59  72 SE8       29.74F
NEW RICHMOND   CLOUDY    66  57  72 S14       29.71S
OSCEOLA        CLOUDY    66  60  81 S10G18    29.73R
$$

WIZ003>005-009-010-017-018-220200-
NORTH CENTRAL WISCONSIN

CITY           SKY/WX    TMP DP  RH WIND       PRES   REMARKS
MANITOWISH WTR CLOUDY    64  58  81 S8        29.82S
ARBOR VITAE    PTCLDY    65  57  74 SE6       29.83S
WOODRUFF       PTCLDY    65  57  74 SE6       29.83S
RHINELANDER    MOCLDY    67  57  70 S10       29.85S
EAGLE RIVER    NOT AVBL
LAND O LAKES   MOCLDY    66  55  67 S8        29.87R
PHILLIPS       CLOUDY    64  58  80 SE9       29.80S
TOMAHAWK       CLOUDY    64  56  73 SE3       29.84S
MEDFORD        CLOUDY    65  57  75 SE10      29.82F
MERRILL        CLOUDY    68  58  71 S7        29.85F
$$

WIZ029-030-035-036-043>047-220200-
CENTRAL WISCONSIN

CITY           SKY/WX    TMP DP  RH WIND       PRES   REMARKS
WAUSAU         CLOUDY    69  58  67 S8        29.84R
MOSINEE        MOCLDY    68  59  73 S10       29.87R
MARSHFIELD     MOCLDY    69  56  62 S14       29.83S
STEVENS POINT  MOCLDY    67  56  68 S9        29.87S
WAUPACA        CLEAR     69  57  64 S7        29.89R
WAUTOMA        CLOUDY   N/A N/A N/A S9        29.89R
WISC RAPIDS    CLEAR     70  58  65 S10G17    29.86S
CAMP DOUGLAS   CLEAR     70  59  67 SE8       29.83F
$$

WIZ011>013-019>022-031-037>040-048>050-220200-
NORTHEAST WISCONSIN

CITY           SKY/WX    TMP DP  RH WIND       PRES   REMARKS
ANTIGO         CLOUDY    65  57  74 S14       29.89R
SHAWANO        CLEAR     66  56  69 S8        29.89R
OCONTO         CLEAR     62  55  79 S8        29.91S
STURGEON BAY   CLEAR     62  56  80 S20G29    29.94S
GREEN BAY      CLEAR     64  57  78 S9        29.92R
MANITOWOC      CLEAR     61  55  81 S21       29.97R
APPLETON       MOCLDY    64  54  68 SE7       29.90R
CLINTONVILLE   CLEAR     68  55  64 S8        29.89R
OSHKOSH        CLOUDY    68  56  65 S8        29.91R
$$

WIZ032>034-041-042-053>061-220200-
SOUTHWEST WISCONSIN

CITY           SKY/WX    TMP DP  RH WIND       PRES   REMARKS
LA CROSSE      CLOUDY    71  61  70 S6        29.78F
SPARTA         MOCLDY    71  60  67 SE8       29.81F
VIROQUA        CLOUDY    68  62  81 SE9G16    29.83F
BOSCOBEL       CLOUDY    75  59  57 S8        29.83F
PRAIRIE DU CHI MOCLDY    74  58  57 SE10G17   29.80F
PLATTEVILLE    MOCLDY    72  61  68 SE15G21   29.87F
$$

WIZ056-057-062-063-064-067-068-220200-
SOUTH CENTRAL WISCONSIN

CITY           SKY/WX    TMP DP  RH WIND       PRES   REMARKS
REEDSBURG      CLOUDY    71  58  64 S6        29.87S
BARABOO/DELLS  CLOUDY    70  56  60 S15       29.88F
LONE ROCK      CLOUDY    73  60  63 S12       29.86S
MINERAL POINT  MOCLDY    70  61  73 S13       29.88F
MADISON        PTCLDY    71  58  63 S14       29.91R
MIDDLETON      PTCLDY    73  58  60 S16G22    29.90F
WATERTOWN      CLOUDY    71  59  66 S13G18    29.93S
MONROE         CLOUDY    72  57  60 S21G26    29.92S
JANESVILLE     CLOUDY    73  57  56 S17G23    29.94R
$$

WIZ051-052-058>065-066-070>072-220200-
SOUTHEAST WISCONSIN

CITY           SKY/WX    TMP DP  RH WIND       PRES   REMARKS
MILWAUKEE      PTCLDY    68  58  70 S10       29.98R
WAUKESHA       PTCLDY    68  55  64 S10       29.98R
MILWAUKEE/TIMM CLEAR     68  54  60 SE8       29.98R
RACINE         CLEAR     64  57  78 S9        30.01R
BURLINGTON     PTCLDY    69  59  72 S10G18    29.98R
KENOSHA        CLEAR     72  58  61 S14       29.99R
FOND DU LAC    MOCLDY    70  54  56 S10       29.92S
SHEBOYGAN      PTCLDY    62  57  83 S10       29.97R
WEST BEND      CLOUDY    63  54  72 SE6       29.96R
JUNEAU         CLOUDY    69  57  64 S14G21    29.94R
$$

LSZ147-162-220200-
LAKE SUPERIOR

STATION/POSITION TIME  TEMP    WIND        PRES    WAVE
                       AIR SEA DIR/SP/G            HT/PER
                 (UTC) (F)     (DEG/KT/KT) (MB)    (FT/S)
W MID LAKE BUOY  0050   59 52              1006.8R   1/ 4
DEVILS ISLAND    0100   67     180/ 10/ 15 1005.6F
PORT WING        2257          180/ 18/ 25 1005.1
SAXON HARBOR     0030   70     190/  9/ 17 1006.1S
$$

LMZ867-665-643>646-220200-
LAKE MICHIGAN

STATION/POSITION TIME  TEMP    WIND        PRES    WAVE
                       AIR SEA DIR/SP/G            HT/PER
                 (UTC) (F)     (DEG/KT/KT) (MB)    (FT/S)
S GREEN BAY BUOY 0030   63 58  160/ 21/ 25 1012.2F
N MID LAKE BUOY  0050   61 58  190/ 10/ 12 1015.1R   7/ 7
NORTHPORT PIER   0040   61     160/  9/ 16 1013.9S
KEWAUNEE LAKESHO 0054   57     180/ 15/ 18 1013.7R
SHEBOYGAN LAKESH 0100   59     180/ 19/ 20 1014.6R
PORT WASHINGTON  0030   57     190/  5/ 10 1015.6S
ATWATER BUOY     0009   58 52  170/ 14/ 16 1014.8R
MILWAUKEE LAKESH 0100   58     150/ 13/ 14   N/A
S MID LAKE BUOY  0050   64 61  140/ 16/ 17 1016.4R   3/ 4
KENOSHA   LAKESH 0100   60     170/ 14/ 17 1015.6
$$

TC  - TEMPERATURE IN CELSIUS
VSB - VISIBILITY IN STATUTE MILES
WCI - WIND CHILL INDEX
HX  - HEAT INDEX





USA.gov is the U.S. government's official web portal to all federal, state and local government web resources and services.